SCD 1 1 22490U 93009B 26093.92229367 .00000723 00000+0 14673-3 0 9993 2 22490 24.9701 306.1083 0042092 72.1219 59.3928 14.46085948750357 TECHSAT 1B (GO-32) 1 25397U 98043D 26093.95764767 .00000139 00000+0 80434-4 0 9996 2 25397 99.0052 84.8541 0002318 78.8036 281.3402 14.24413417440761 SCD 2 1 25504U 98060A 26093.52663745 .00000596 00000+0 11560-3 0 9992 2 25504 24.9941 172.5799 0016995 54.5859 328.3594 14.45496910449513 DLR-TUBSAT 1 25757U 99029B 26093.96023918 .00000215 00000+0 64621-4 0 9993 2 25757 98.6685 87.0300 0013542 212.0698 147.9674 14.52407409422474 TERRA 1 25994U 99068A 26093.92603322 .00000808 00000+0 17354-3 0 9996 2 25994 97.9540 146.3900 0003665 99.6627 3.4583 14.61044036398762 MAROC-TUBSAT 1 27004U 01056D 26093.73420738 -.00000020 00000+0 30063-4 0 9997 2 27004 99.8040 269.1973 0019484 335.6932 36.9137 13.70259317215992 AQUA 1 27424U 02022A 26093.94169943 .00001773 00000+0 36316-3 0 9999 2 27424 98.4218 61.7750 0001372 115.7141 320.8374 14.62040083272424 IRS-P6 (RESOURCESAT-1) 1 28051U 03046A 26093.96527925 .00000304 00000+0 11593-3 0 9992 2 28051 98.1993 134.0863 0063616 203.9462 251.1387 14.36132734169872 SHIYAN-1 (SY-1) 1 28220U 04012A 26093.76178199 .00024863 00000+0 80889-3 0 9997 2 28220 97.8728 167.1005 0004462 280.7036 79.3702 15.31864905199693 AURA 1 28376U 04026A 26093.89708034 .00001746 00000+0 36400-3 0 9990 2 28376 98.3353 49.7711 0001411 94.3089 265.8273 14.61211563155361 IRS-P5 (CARTOSAT-1) 1 28649U 05017A 26093.65001838 .00002385 00000+0 24745-3 0 9995 2 28649 97.5374 120.0816 0001022 52.6243 307.5069 14.90857531132718 SINAH 1 1 28893U 05043D 26093.90477339 .00000817 00000+0 16473-3 0 9993 2 28893 98.2733 227.8394 0015248 145.2285 214.9917 14.64104132 89653 RESURS-DK 1 1 29228U 06021A 26093.59509700 .00004233 00000+0 24586-3 0 9996 2 29228 69.9335 172.5971 0001899 37.3825 322.7473 15.12902821 91297 ARIRANG-2 (KOMPSAT-2) 1 29268U 06031A 26093.98110918 .00000816 00000+0 16196-3 0 9994 2 29268 97.8303 282.0147 0013425 313.4469 200.6731 14.64612977 50616 LAPAN-TUBSAT 1 29709U 07001A 26093.97865978 .00000448 00000+0 57967-4 0 9997 2 29709 98.1343 91.5372 0013593 69.2870 290.9800 14.85869818 40131 HAIYANG-1B 1 31113U 07010A 26093.88919923 .00000189 00000+0 87541-4 0 9992 2 31113 98.3460 78.6333 0014664 63.8840 296.3851 14.31008157990003 COSMO-SKYMED 1 1 31598U 07023A 26093.93684139 .00007108 00000+0 62685-3 0 9996 2 31598 97.8868 285.1753 0001551 100.5887 259.5509 14.96733477 18685 TERRASAR-X 1 31698U 07026A 26093.49709094 .00002572 00000+0 12564-3 0 9990 2 31698 97.4463 102.2666 0001777 89.0231 271.1207 15.19147830 41880 WORLDVIEW-1 (WV-1) 1 32060U 07041A 26093.91560442 .00012757 00000+0 52830-3 0 9996 2 32060 97.3852 214.7106 0001552 347.1655 12.9543 15.24054014 31567 YAOGAN-3 1 32289U 07055A 26093.95224881 .00003496 00000+0 36375-3 0 9998 2 32289 97.8226 124.5519 0001256 86.6620 273.4742 14.90498046994803 COSMO-SKYMED 2 1 32376U 07059A 26093.96697046 .00000924 00000+0 12266-3 0 9993 2 32376 97.8880 278.6385 0001282 88.6239 271.5121 14.82159848991009 RADARSAT-2 1 32382U 07061A 26093.93865476 -.00000031 00000+0 47057-5 0 9992 2 32382 98.5806 101.9241 0001245 84.8700 275.2625 14.29980680955345 CARTOSAT-2A 1 32783U 08021A 26093.90657337 .00001490 00000+0 20757-3 0 9991 2 32783 97.7720 145.1246 0011778 0.6878 359.4348 14.79148729967823 HUANJING 1A (HJ-1A) 1 33320U 08041A 26093.92434113 .00002070 00000+0 25517-3 0 9992 2 33320 97.6658 82.6585 0019832 27.0064 333.2179 14.83813145947398 HUANJING 1B (HJ-1B) 1 33321U 08041B 26093.92835446 .00001289 00000+0 16230-3 0 9990 2 33321 97.6501 86.0535 0037974 68.1146 292.4100 14.83175440947404 GEOEYE 1 1 33331U 08042A 26093.89389457 .00000937 00000+0 18512-3 0 9998 2 33331 98.1269 168.7586 0002983 305.0653 55.0270 14.64656258939271 THEOS 1 33396U 08049A 26093.91952234 .00000244 00000+0 13422-3 0 9994 2 33396 98.5649 153.5898 0001155 99.3169 260.8139 14.20122721907428 COSMO-SKYMED 3 1 33412U 08054A 26093.89546458 .00009830 00000+0 66781-3 0 9999 2 33412 97.8366 311.2193 0016296 154.0280 206.1768 15.06477758945758 YAOGAN-4 1 33446U 08061A 26093.81928380 .00002496 00000+0 31287-3 0 9998 2 33446 97.9273 27.9040 0013309 317.8406 42.1783 14.83058030934649 GOSAT (IBUKI) 1 33492U 09002A 26093.88808444 .00001259 00000+0 23043-3 0 9997 2 33492 98.0792 205.9360 0001064 97.7669 262.3657 14.67546183920566 DEIMOS-1 1 35681U 09041A 26093.91380399 .00000927 00000+0 14433-3 0 9994 2 35681 97.7301 254.3989 0002717 80.2295 279.9221 14.75156822895932 DUBAISAT-1 1 35682U 09041B 26093.94528534 .00001948 00000+0 29710-3 0 9991 2 35682 97.9924 228.0715 0009388 314.1933 45.8503 14.74981770894153 OCEANSAT-2 1 35931U 09051A 26093.92539567 .00000062 00000+0 67814-4 0 9999 2 35931 98.2313 88.2048 0017506 83.7161 276.5999 13.99654958868945 WORLDVIEW-2 (WV-2) 1 35946U 09055A 26093.91670793 .00000314 00000+0 11836-3 0 9997 2 35946 98.4653 168.4174 0005552 85.1629 275.0192 14.37922024864977 SMOS 1 36036U 09059A 26093.48110885 .00000477 00000+0 16601-3 0 9990 2 36036 98.4434 281.9030 0000963 97.1467 262.9830 14.39779219862702 YAOGAN-7 1 36110U 09069A 26093.68494415 .00001133 00000+0 16403-3 0 9990 2 36110 98.0170 339.9764 0023260 280.3953 79.4636 14.77935127878624 TANDEM-X 1 36605U 10030A 26093.49709111 .00002022 00000+0 99474-4 0 9998 2 36605 97.4466 102.2676 0001854 93.0429 267.1017 15.19147196875308 CARTOSAT-2B 1 36795U 10035A 26093.90190646 .00001440 00000+0 20380-3 0 9998 2 36795 98.0038 144.8953 0012601 72.1694 288.0891 14.78582248848873 YAOGAN-10 1 36834U 10038A 26093.97876145 .00003428 00000+0 40697-3 0 9998 2 36834 97.9046 117.9632 0001613 86.6067 0.5292 14.85124095846199 COSMO-SKYMED 4 1 37216U 10060A 26093.91212910 .00000690 00000+0 93207-4 0 9990 2 37216 97.8873 278.5852 0001467 81.6440 278.4939 14.82157931833569 RESOURCESAT-2 1 37387U 11015A 26093.90631960 -.00000428 00000+0 -17294-3 0 9991 2 37387 98.7701 161.8427 0010534 104.5501 255.6845 14.22143469775628 HAIYANG-2A 1 37781U 11043A 26093.98924303 -.00000210 00000+0 -16830-3 0 9998 2 37781 99.3414 98.1678 0003822 231.7593 128.3214 13.76912406736457 RASAT 1 37791U 11044D 26093.96182508 .00000737 00000+0 13631-3 0 9999 2 37791 98.0554 186.5071 0021918 69.1855 18.0306 14.68094366782296 SRMSAT 1 37841U 11058D 26093.49447571 .00000510 00000+0 13315-3 0 9990 2 37841 19.9706 151.5655 0011934 101.6708 286.3111 14.11557175747250 PLEIADES 1A 1 38012U 11076F 26093.96529793 .00000539 00000+0 12571-3 0 9994 2 38012 98.2010 170.0544 0001418 75.1226 336.9276 14.58562424761173 ZIYUAN 1-02C (ZY 1-02C) 1 38038U 11079A 26093.98399875 .00000667 00000+0 23398-3 0 9994 2 38038 98.4128 162.8286 0006843 159.8717 277.5970 14.38151500748541 ARIRANG-3 (KOMPSAT-3) 1 38338U 12025B 26093.92066448 .00001046 00000+0 21731-3 0 9991 2 38338 98.1106 52.6959 0005377 2.7971 357.3259 14.62139182740491 EXACTVIEW-1 (ADS-1B) 1 38709U 12039C 26093.88186144 .00000256 00000+0 12906-3 0 9995 2 38709 98.9667 209.6331 0011279 30.9863 329.1978 14.24962003712120 SPOT 6 1 38755U 12047A 26093.90182729 .00000549 00000+0 12803-3 0 9994 2 38755 98.2176 162.0614 0001473 83.9471 276.1896 14.58562910722225 PLEIADES 1B 1 39019U 12068A 26093.92125235 .00000559 00000+0 13019-3 0 9993 2 39019 98.1981 169.9853 0001322 77.9846 282.1501 14.58549590710029 GOKTURK 2 1 39030U 12073A 26093.95929676 .00000914 00000+0 14139-3 0 9995 2 39030 97.6866 295.0918 0001087 106.8165 253.3164 14.75470271713560 LANDSAT 8 1 39084U 13008A 26093.86191760 .00000515 00000+0 12425-3 0 9991 2 39084 98.1875 165.1687 0001219 89.4800 270.6538 14.57109763687072 SARAL 1 39086U 13009A 26093.95007765 .00000200 00000+0 89300-4 0 9993 2 39086 98.5564 281.4517 0002701 124.1500 235.9940 14.32837576684978 GAOFEN-1 1 39150U 13018A 26093.92554339 .00001146 00000+0 17130-3 0 9997 2 39150 97.9139 167.4881 0018053 141.6152 218.6347 14.76527376697281 VNREDSAT 1 1 39160U 13021B 26093.90874433 .00000909 00000+0 17834-3 0 9997 2 39160 97.9162 150.1456 0001395 82.9149 277.2213 14.64927507689415 ARIRANG-5 (KOMPSAT-5) 1 39227U 13042A 26093.94276692 .00005772 00000+0 41629-3 0 9993 2 39227 97.6189 281.6786 0004443 46.7640 313.3956 15.04509012692694 SKYSAT-A 1 39418U 13066C 26093.71024303 .00005712 00000+0 32960-3 0 9998 2 39418 97.3897 145.4724 0020924 208.0019 152.0088 15.12543705677225 DUBAISAT-2 1 39419U 13066D 26093.97946444 .00006358 00000+0 39861-3 0 9990 2 39419 97.4552 86.1091 0009653 292.4898 67.5309 15.09637678675190 GPM-CORE 1 39574U 14009C 26093.82679524 .00022798 00000+0 49491-3 0 9992 2 39574 64.9735 197.2604 0013014 254.6401 105.3301 15.44285897686325 SENTINEL-1A 1 39634U 14016A 26093.96752032 -.00000211 00000+0 -35026-4 0 9996 2 39634 98.1806 102.5751 0001402 84.7784 275.3576 14.59196969639197 KAZEOSAT 1 1 39731U 14024A 26093.91812836 .00000300 00000+0 10447-3 0 9993 2 39731 98.3246 168.2006 0001124 100.9818 259.1499 14.42049415627856 ALOS-2 1 39766U 14029A 26093.13423900 .00000218 00000+0 36025-4 0 9999 2 39766 97.9197 191.3762 0001873 101.9153 258.2269 14.79449708640482 KAZEOSAT 2 1 40010U 14033A 26093.92933675 .00002115 00000+0 25136-3 0 9998 2 40010 97.5463 297.4418 0007900 194.7110 165.3877 14.85384434637934 HODOYOSHI-4 1 40011U 14033B 26093.93092977 .00005674 00000+0 62144-3 0 9994 2 40011 97.5449 282.3430 0023480 188.2380 171.8455 14.87945245637764 DEIMOS-2 1 40013U 14033D 26093.88783294 .00003851 00000+0 37080-3 0 9995 2 40013 97.5940 330.9545 0001449 109.1727 250.9650 14.93520286626638 HODOYOSHI-3 1 40015U 14033F 26093.94574584 .00002789 00000+0 32846-3 0 9998 2 40015 97.6338 260.0116 0031739 237.6546 122.1596 14.85218251636604 SPOT 7 1 40053U 14034A 26093.93777909 .00000764 00000+0 16544-3 0 9994 2 40053 98.0697 158.3234 0001630 91.4638 268.6750 14.60892102626292 SKYSAT-B 1 40072U 14037D 26093.81575873 .00003387 00000+0 37712-3 0 9995 2 40072 98.3771 48.5850 0006192 147.3932 212.7666 14.87827857634906 WORLDVIEW-3 (WV-3) 1 40115U 14048A 26093.91106602 .00001729 00000+0 20954-3 0 9994 2 40115 97.8597 169.7660 0001825 144.9180 215.2155 14.84897652630886 GAOFEN-2 1 40118U 14049A 26093.91746117 .00000723 00000+0 10064-3 0 9993 2 40118 98.0176 158.1773 0008637 110.2520 249.9621 14.80810139628244 YAOGAN-21 1 40143U 14053A 26093.92564821 .00007179 00000+0 28723-3 0 9990 2 40143 97.1563 137.3740 0008268 8.3140 351.8234 15.25336397643632 YAOGAN-22 1 40275U 14063A 26093.88378297 -.00000027 00000+0 52717-4 0 9999 2 40275 100.7597 243.9549 0006181 2.6778 357.4365 13.15528503550041 ASNARO 1 40298U 14070A 26093.81388766 .00011878 00000+0 55595-3 0 9998 2 40298 97.3484 171.9182 0006914 86.4204 273.7822 15.19865516632710 YAOGAN-24 1 40310U 14072A 26093.92689069 .00001344 00000+0 20199-3 0 9996 2 40310 98.1358 230.6887 0014794 137.5376 222.6980 14.76120293612761 CBERS 4 1 40336U 14079A 26093.94471870 .00000125 00000+0 58106-4 0 9998 2 40336 98.3429 153.1426 0000338 133.1616 226.9599 14.35574290593302 YAOGAN-26 1 40362U 14088A 26093.95169396 .00039498 00000+0 85144-3 0 9991 2 40362 97.0661 96.0569 0003201 354.6380 5.4834 15.44473419626231 SMAP 1 40376U 15003A 26093.96059989 .00000903 00000+0 18378-3 0 9995 2 40376 98.1307 102.0971 0001909 95.1709 264.9711 14.63373245596761 KOMPSAT-3A 1 40536U 15014A 26093.91115932 .00044603 00000+0 72561-3 0 9990 2 40536 97.6889 80.0588 0063751 88.2886 272.5665 15.50198311610293 SENTINEL-2A 1 40697U 15028A 26093.94900571 .00000194 00000+0 90571-4 0 9996 2 40697 98.5649 169.8703 0001334 92.5163 267.6172 14.30816637563116 GAOFEN-8 1 40701U 15030A 26093.97631959 .00018572 00000+0 41654-3 0 9995 2 40701 97.6935 283.0297 0010321 101.9556 258.2849 15.43407450599990 CARBONITE 1 (CBNT-1) 1 40718U 15032D 26093.91893443 .00006756 00000+0 82847-3 0 9997 2 40718 97.6477 275.1151 0014718 172.8057 187.3372 14.83351395578334 YAOGAN-27 1 40878U 15040A 26093.98424814 -.00000508 00000+0 -12249-2 0 9991 2 40878 100.1126 83.5990 0008623 29.9970 330.1636 13.16065669507905 GAOFEN-9 01 1 40894U 15047A 26093.96864525 .00001871 00000+0 23636-3 0 9996 2 40894 97.6363 133.0103 0028006 26.6656 333.5991 14.82749893569197 YAOGAN-28 1 41026U 15064A 26093.94304615 .00013736 00000+0 52796-3 0 9992 2 41026 97.2955 233.8205 0012298 94.4505 265.8139 15.26464403579352 YAOGAN-29 1 41038U 15069A 26093.96135671 .00000850 00000+0 11126-3 0 9991 2 41038 98.0102 122.4543 0000091 197.0862 163.0348 14.83024118559626 KENT RIDGE 1 1 41167U 15077B 26093.36723006 .00007046 00000+0 26134-3 0 9991 2 41167 14.9794 102.2151 0008478 263.3691 96.5665 15.22664917569677 GAOFEN-4 1 41194U 15083A 26093.91195947 -.00000336 00000+0 00000+0 0 9992 2 41194 0.3909 82.9420 0006140 86.4517 96.8411 1.00271608 37788 JASON-3 1 41240U 16002A 26093.90555281 -.00000043 00000+0 77343-4 0 9990 2 41240 66.0400 282.0060 0007651 276.2549 83.7598 12.87627808477682 SENTINEL-3A 1 41335U 16011A 26093.94900073 .00000248 00000+0 12069-3 0 9991 2 41335 98.6299 162.3815 0001156 93.1696 266.9617 14.26736401527470 ZIYUAN 3-02 (ZY 3-02) 1 41556U 16033A 26093.93198450 .00011826 00000+0 52949-3 0 9992 2 41556 97.3864 171.1182 0013462 190.5053 169.5904 15.21336532546695 CARTOSAT-2C 1 41599U 16040A 26093.89761473 .00003328 00000+0 16123-3 0 9995 2 41599 97.4559 154.8670 0010037 39.0225 321.1732 15.19196841542434 SKYSAT-C1 1 41601U 16040C 26093.54169593 .00016145 00000+0 47643-3 0 9998 2 41601 96.9648 129.3427 0000778 342.5802 17.5416 15.35052688546417 LAPAN-A3 1 41603U 16040E 26093.96783163 .00006405 00000+0 20559-3 0 9996 2 41603 97.1489 92.5834 0008403 284.5798 75.4513 15.32612740543449 GAOFEN-3 1 41727U 16049A 26093.98839851 .00000070 00000+0 34400-4 0 9993 2 41727 98.4040 102.8860 0001602 72.6800 287.4565 14.42222630507954 SKYSAT-C4 1 41771U 16058B 26093.96608244 .00030021 00000+0 60859-3 0 9995 2 41771 96.9245 118.9414 0002905 124.9795 235.1729 15.46334368533999 SKYSAT-C5 1 41772U 16058C 26093.67650116 .00014480 00000+0 43920-3 0 9990 2 41772 97.0556 137.6523 0002081 175.2637 184.8627 15.34208720532327 SKYSAT-C2 1 41773U 16058D 26093.59413882 .00020523 00000+0 50871-3 0 9997 2 41773 97.0236 118.5614 0002243 0.8904 359.2346 15.40410607533561 SKYSAT-C3 1 41774U 16058E 26093.62495179 .00033101 00000+0 60062-3 0 9990 2 41774 96.9123 127.4524 0002450 110.9640 249.1875 15.49520427534559 ALSAT-1B 1 41785U 16059C 26093.95482593 .00000859 00000+0 14360-3 0 9999 2 41785 97.7786 105.9157 0010740 102.5178 257.7232 14.72216968509654 PATHFINDER 1 1 41787U 16059E 26093.95805264 .00001377 00000+0 24915-3 0 9998 2 41787 97.8183 96.5868 0029970 83.3490 277.1125 14.67568046508826 SCATSAT 1 1 41790U 16059H 26093.74852462 .00002908 00000+0 38750-3 0 9994 2 41790 98.1251 156.7355 0055994 127.3315 233.3017 14.79354871 90585 GOKTURK 1A 1 41875U 16073A 26093.89095608 .00001079 00000+0 22068-3 0 9994 2 41875 98.1335 349.6987 0001376 80.6490 279.4867 14.62778142497966 RESOURCESAT-2A 1 41877U 16074A 26093.88772422 .00000351 00000+0 18033-3 0 9991 2 41877 98.7566 167.9880 0001126 315.4173 44.6913 14.21611345483744 CARTOSAT-2D 1 41948U 17008A 26092.15239628 .00000233 00000+0 14239-4 0 9997 2 41948 97.4190 152.8466 0005833 141.2675 218.8979 15.19319362506033 SENTINEL-2B 1 42063U 17013A 26093.94176374 .00000132 00000+0 67110-4 0 9992 2 42063 98.5675 169.7734 0001214 94.9356 265.1965 14.30816960474027 CARTOSAT-2E 1 42767U 17036C 26093.94777345 .00000088 00000+0 73392-5 0 9993 2 42767 97.4352 154.9448 0003479 187.4276 172.6907 15.19322097486875 FORMOSAT-5 1 42920U 17049A 26093.91537735 .00000391 00000+0 11042-3 0 9991 2 42920 98.2276 170.8710 0010674 319.0767 40.9626 14.50710063455905 SENTINEL-5P 1 42969U 17064A 26093.76832113 .00000131 00000+0 83036-4 0 9997 2 42969 98.7917 36.4360 0001217 89.4118 270.7197 14.19505755439008 SKYSAT-C11 1 42987U 17068A 26093.90662389 .00047012 00000+0 72272-3 0 9991 2 42987 97.4253 239.7672 0000546 161.6539 198.4734 15.54110013471698 SKYSAT-C10 1 42988U 17068B 26093.92777451 .00019021 00000+0 59243-3 0 9993 2 42988 97.4388 230.1765 0001027 109.3391 250.7962 15.33318506470975 SKYSAT-C9 1 42989U 17068C 26093.93578308 .00025496 00000+0 64426-3 0 9997 2 42989 97.4313 230.4389 0009405 51.3646 308.8440 15.39745751471324 SKYSAT-C8 1 42990U 17068D 26093.94248882 .00020789 00000+0 60444-3 0 9997 2 42990 97.4405 229.7181 0001096 94.1581 265.9787 15.35479517470911 SKYSAT-C7 1 42991U 17068E 26093.93336283 .00020999 00000+0 61114-3 0 9998 2 42991 97.4417 230.6932 0006284 25.3448 334.8103 15.35429484470974 SKYSAT-C6 1 42992U 17068F 26093.64049171 .00018100 00000+0 56730-3 0 9993 2 42992 97.4451 230.6081 0003571 66.5868 293.5749 15.33124245470890 CARTOSAT-2F 1 43111U 18004A 26093.91382885 .00005702 00000+0 27398-3 0 9992 2 43111 97.4108 154.6109 0001962 133.8807 226.2591 15.19216633456059 GAOFEN-1 02 1 43259U 18031A 26093.95393567 .00000196 00000+0 35607-4 0 9993 2 43259 98.0595 156.6639 0001956 225.2341 134.8710 14.76453549431748 GAOFEN-1 03 1 43260U 18031B 26093.93209656 .00001546 00000+0 22956-3 0 9990 2 43260 98.0583 156.5082 0001699 334.9330 25.1797 14.76472541431737 GAOFEN-1 04 1 43262U 18031D 26093.90779311 .00001127 00000+0 16953-3 0 9994 2 43262 98.0598 156.6657 0001295 56.4783 303.6550 14.76433440431729 SENTINEL-3B 1 43437U 18039A 26093.78187534 .00000220 00000+0 10901-3 0 9992 2 43437 98.6298 162.3645 0001538 112.7353 247.3991 14.26735870413513 GAOFEN-5 01 1 43461U 18043A 26093.86929474 .00000734 00000+0 16130-3 0 9990 2 43461 98.4510 63.9250 0001206 355.1424 4.9764 14.60551905420849 GAOFEN-6 1 43484U 18048A 26093.93637669 .00001356 00000+0 20075-3 0 9994 2 43484 97.7826 159.3195 0013462 61.1948 299.0612 14.76642606422438 GAOFEN-11 01 1 43585U 18063A 26093.93818569 .00021895 00000+0 35020-3 0 9999 2 43585 97.1362 161.1206 0002695 231.7024 128.3988 15.53157140428817 ICESAT-2 1 43613U 18070A 26093.90177686 .00004839 00000+0 17581-3 0 9995 2 43613 91.9996 270.9522 0004300 74.2968 285.8756 15.28246891421118 HYSIS 1 43719U 18096A 26093.90948419 .00001830 00000+0 25702-3 0 9992 2 43719 97.9898 161.2200 0001568 65.8506 294.2869 14.78624373396449 KAZSTSAT 1 43783U 18099AB 26093.64035773 .00002769 00000+0 22888-3 0 9991 2 43783 97.4364 128.9201 0003282 288.9600 71.1268 14.99705507400131 SAUDISAT 5A 1 43831U 18102A 26093.95134269 .00010389 00000+0 39048-3 0 9997 2 43831 97.3135 156.9780 0010798 45.3053 314.9064 15.27295066404345 SAUDISAT 5B 1 43833U 18102C 26093.91813536 .00010858 00000+0 40424-3 0 9997 2 43833 97.3235 159.8817 0011551 47.0371 313.1835 15.27589217404454 GAOFEN-10R 1 44622U 19066A 26093.93344719 .00003065 00000+0 38479-3 0 9997 2 44622 98.0441 47.0094 0006373 31.4565 328.7028 14.82889909351370 CARTOSAT-3 1 44804U 19081A 26093.92897370 .00006167 00000+0 29498-3 0 9998 2 44804 97.4373 156.9619 0012971 57.0561 303.1919 15.19273430352197 GAOFEN-12 01 1 44819U 19082A 26094.00180300 .00000853 00000+0 11831-3 0 9991 2 44819 97.8132 102.3352 0000583 77.6961 282.4317 14.80397532343117 CSG-1 1 44873U 19092A 26091.89946235 .00000627 00000+0 85301-4 0 9996 2 44873 97.8881 276.6032 0001318 86.2426 273.8938 14.82161759340175 NEMO-HD 1 46277U 20061F 26093.91525248 .00018800 00000+0 42620-3 0 9994 2 46277 97.1989 156.6732 0001030 71.3686 288.7674 15.43127309310524 SENTINEL-6A 1 46984U 20086A 26093.91337613 -.00000050 00000+0 48072-4 0 9990 2 46984 66.0402 289.3221 0007724 270.7512 89.2619 12.80930650250817 GAOFEN-12 02 1 48079U 21026A 26093.93739931 .00000870 00000+0 12136-3 0 9993 2 48079 97.9932 92.4276 0006185 109.4838 250.7043 14.80235539270776 PLEIADES NEO 3 1 48268U 21034A 26091.87392873 .00000385 00000+0 55493-4 0 9998 2 48268 97.8936 167.7361 0001250 90.1149 270.0207 14.81673242266353 PLEIADES NEO 4 1 49070U 21073E 26092.71807238 .00000257 00000+0 39217-4 0 9997 2 49070 97.8936 168.5642 0001361 93.2976 266.8392 14.81674962250194 LANDSAT 9 1 49260U 21088A 26093.75910960 .00000686 00000+0 16228-3 0 9998 2 49260 98.1896 165.1349 0001185 97.2898 262.8435 14.57124323240166 CSG-2 1 51444U 22008A 26093.95852411 .00001191 00000+0 15611-3 0 9993 2 51444 97.8873 278.6298 0001467 82.6930 277.4450 14.82151066225596 GAOFEN-12 03 1 52912U 22069A 26093.88484639 .00001571 00000+0 21479-3 0 9997 2 52912 97.8376 343.5985 0002215 62.6787 297.4650 14.79912481203626 SWOT 1 54754U 22173A 26093.89020109 -.00000119 00000+0 -79157-4 0 9994 2 54754 77.6083 135.6077 0000682 204.1403 155.9717 14.00167674168755 GAOFEN-12 04 1 57654U 23123A 26093.91070557 .00002496 00000+0 33607-3 0 9994 2 57654 97.9133 13.0022 0001340 76.7762 283.3599 14.80081780141644 PARS 1 1 59065U 24039Q 26093.95941028 .00021252 00000+0 46407-3 0 9996 2 59065 97.4788 72.6523 0010718 34.9735 325.2215 15.44164494117183 RESURS-P 4 1 59371U 24061A 26093.94084649 .00007230 00000+0 22808-3 0 9996 2 59371 97.2698 43.1603 0000857 84.4453 275.6888 15.33158983112399 LEGION 1 1 59625U 24081A 26093.87370624 .00008361 00000+0 43087-3 0 9991 2 59625 97.5040 172.5123 0008428 278.4701 81.5577 15.16602357106271 LEGION 2 1 59626U 24081B 26093.91063504 .00008905 00000+0 45560-3 0 9995 2 59626 97.5038 172.6306 0009501 246.0871 113.9367 15.16827042106283 ALOS-4 (DAICHI-4) 1 60182U 24123A 26092.81550207 .00002561 00000+0 34965-3 0 9999 2 60182 97.9197 191.0646 0001614 100.5955 259.5439 14.79483193 94734 LEGION 3 1 60452U 24146A 26093.91966838 .00008939 00000+0 47792-3 0 9994 2 60452 45.0007 68.6631 0007578 106.3628 253.8085 15.15428307 90756 LEGION 4 1 60453U 24146B 26093.58991369 .00008509 00000+0 45477-3 0 9996 2 60453 45.0006 162.3028 0015612 255.9251 103.9893 15.15421287 89557 SENTINEL-2C 1 60989U 24157A 26093.76695079 .00000219 00000+0 10008-3 0 9993 2 60989 98.5652 169.6187 0001220 114.8400 245.2910 14.30824051 82348 IONOSFERA-M 1 1 61735U 24199A 26093.92925192 .00000130 00000+0 77832-4 0 9990 2 61735 98.7281 327.8452 0001518 42.2829 317.8466 14.22740684117149 IONOSFERA-M 2 1 61736U 24199B 26093.89337980 .00000111 00000+0 69400-4 0 9990 2 61736 98.7281 327.7209 0001356 124.2193 235.9113 14.22743487120264 BIOMASS 1 63772U 25090A 26093.50752357 .00002872 00000+0 51478-3 0 9991 2 63772 98.0741 281.9045 0001312 94.6278 265.5076 14.67540872 49736 GOSAT-GW (IBUKI GW) 1 64694U 25141A 26093.94058641 .00001740 00000+0 31506-3 0 9998 2 64694 98.0530 32.4824 0001438 85.3010 274.8359 14.67560878 40950 IONOSFERA-M 3 1 64876U 25155A 26093.91496954 .00000143 00000+0 85061-4 0 9997 2 64876 98.5967 57.7176 0002482 79.3955 280.7502 14.21473121 35855 IONOSFERA-M 4 1 64877U 25155B 26093.94991574 .00000148 00000+0 87159-4 0 9994 2 64877 98.5962 57.6698 0001841 76.8586 283.2797 14.21475055 35851 MICROCARB 1 64899U 25156A 26093.79868485 .00001161 00000+0 19138-3 0 9993 2 64899 97.9853 172.2612 0017218 146.4165 213.8138 14.72244563 37022 CO3D 3 1 64900U 25156B 26090.51674821 .00000117 00000+0 85126-5 0 9994 2 64900 97.4337 170.3268 0002068 103.1490 256.9977 15.20193533 37732 CO3D 4 1 64901U 25156C 26092.95234169 .00003522 00000+0 16571-3 0 9991 2 64901 97.4325 172.7255 0001404 146.2155 213.9170 15.20213953 38100 CO3D 2 1 64902U 25156D 26093.18234204 .00011547 00000+0 51813-3 0 9992 2 64902 97.6520 173.3642 0063279 311.0942 48.4837 15.19537740 38136 CO3D 1 1 64903U 25156E 26093.24825721 .00029003 00000+0 13154-2 0 9991 2 64903 97.4393 173.0315 0023021 357.4030 2.7082 15.20542090 38142 SENTINEL-6B 1 66514U 25264A 26093.91371777 -.00000049 00000+0 53494-4 0 9995 2 66514 66.0402 289.4475 0007887 270.3266 89.6845 12.80930466 17655 CSG-3 1 67304U 26001A 26093.93744264 .00000714 00000+0 96266-4 0 9992 2 67304 97.8883 278.6115 0001406 86.9963 273.1411 14.82157438 13463